| time (UTC) | temp F | wind direction | speed MPH | gust MPH | rain 1hr in | rain 24hr in | rain mn in | humidity % | barometer mb |
| 20260902131551 | 78 | 173 | 0.0 | 3.0 | 0.00 | 0.01 | 0.00 | 90 | 1015.9 |
| 20260902130056 | 79 | 162 | 0.0 | 3.0 | 0.00 | 0.01 | 0.00 | 89 | 1015.6 |
| 20260902124545 | 79 | 168 | 1.0 | 5.0 | 0.00 | 0.01 | 0.00 | 89 | 1015.6 |
| 20260902123052 | 78 | 167 | 0.0 | 1.0 | 0.00 | 0.01 | 0.00 | 90 | 1015.3 |
| 20260902121539 | 79 | 167 | 0.0 | 3.0 | 0.00 | 0.01 | 0.00 | 91 | 1015.0 |
| 20260902120037 | 79 | 168 | 1.0 | 16.0 | 0.00 | 0.01 | 0.00 | 90 | 1015.0 |
| 20260902114538 | 81 | 187 | 6.0 | 16.0 | 0.00 | 0.01 | 0.00 | 92 | 1015.1 |
| 20260902113038 | 81 | 193 | 0.0 | 0.0 | 0.00 | 0.01 | 0.00 | 93 | 1014.8 |
| 20260902111531 | 81 | 193 | 0.0 | 1.0 | 0.00 | 0.01 | 0.00 | 93 | 1014.7 |
| 20260902110029 | 81 | 193 | 0.0 | 1.0 | 0.00 | 0.01 | 0.00 | 93 | 1014.7 |
| 20260902104529 | 81 | 192 | 0.0 | 0.0 | 0.00 | 0.01 | 0.00 | 93 | 1014.7 |
| 20260902103031 | 81 | 192 | 0.0 | 0.0 | 0.00 | 0.01 | 0.00 | 92 | 1014.7 |
| 20260902101529 | 81 | 192 | 0.0 | 0.0 | 0.00 | 0.01 | 0.00 | 92 | 1014.7 |
| 20260902100027 | 82 | 192 | 0.0 | 0.0 | 0.00 | 0.01 | 0.00 | 92 | 1014.5 |
| 20260902094526 | 82 | 208 | 0.0 | 0.0 | 0.00 | 0.01 | 0.00 | 92 | 1014.4 |
| 20260902093025 | 82 | 215 | 0.0 | 0.0 | 0.00 | 0.01 | 0.00 | 92 | 1014.5 |
| 20260902091525 | 82 | 200 | 0.0 | 0.0 | 0.00 | 0.01 | 0.00 | 91 | 1014.5 |
| 20260902090024 | 82 | 204 | 0.0 | 0.0 | 0.00 | 0.01 | 0.00 | 91 | 1014.2 |
| 20260902084526 | 82 | 192 | 0.0 | 0.0 | 0.00 | 0.01 | 0.00 | 91 | 1014.4 |
| 20260902083022 | 82 | 214 | 0.0 | 0.0 | 0.00 | 0.01 | 0.00 | 91 | 1014.4 |
| 20260902081522 | 82 | 186 | 0.0 | 0.0 | 0.00 | 0.01 | 0.00 | 91 | 1014.4 |
| 20260902080022 | 82 | 190 | 0.0 | 0.0 | 0.00 | 0.01 | 0.00 | 91 | 1014.5 |
| 20260902074521 | 82 | 187 | 0.0 | 0.0 | 0.00 | 0.01 | 0.00 | 91 | 1014.6 |
| 20260902073020 | 82 | 186 | 0.0 | 0.0 | 0.00 | 0.01 | 0.00 | 91 | 1014.7 |
| 20260902071520 | 82 | 180 | 0.0 | 0.0 | 0.00 | 0.01 | 0.00 | 91 | 1014.6 |
| 20260902070019 | 82 | 189 | 0.0 | 0.0 | 0.00 | 0.01 | 0.00 | 91 | 1014.6 |
| 20260902064519 | 81 | 198 | 0.0 | 0.0 | 0.00 | 0.01 | 0.00 | 91 | 1014.5 |
| 20260902063018 | 81 | 209 | 0.0 | 0.0 | 0.00 | 0.01 | 0.00 | 91 | 1014.6 |
| 20260902061517 | 82 | 194 | 0.0 | 0.0 | 0.00 | 0.01 | 0.00 | 91 | 1014.5 |
| 20260902060018 | 81 | 192 | 0.0 | 0.0 | 0.00 | 0.01 | 0.00 | 91 | 1014.5 |
| 20260902054516 | 82 | 188 | 0.0 | 0.0 | 0.00 | 0.01 | 0.00 | 91 | 1014.4 |
| 20260902053014 | 82 | 192 | 0.0 | 0.0 | 0.00 | 0.01 | 0.00 | 90 | 1014.4 |
| 20260902051515 | 82 | 209 | 0.0 | 0.0 | 0.00 | 0.01 | 0.00 | 89 | 1014.7 |
| 20260902050009 | 82 | 213 | 0.0 | 0.0 | 0.00 | 0.01 | 0.00 | 89 | 1014.8 |
| 20260902044508 | 82 | 189 | 0.0 | 0.0 | 0.00 | 0.01 | 0.01 | 89 | 1014.7 |
| 20260902043008 | 83 | 197 | 0.0 | 0.0 | 0.00 | 0.01 | 0.01 | 88 | 1014.7 |
| 20260902041508 | 82 | 200 | 0.0 | 0.0 | 0.00 | 0.01 | 0.01 | 88 | 1014.6 |
| 20260902040007 | 82 | 202 | 0.0 | 0.0 | 0.00 | 0.01 | 0.01 | 88 | 1014.7 |
| 20260902034507 | 82 | 236 | 0.0 | 0.0 | 0.00 | 0.01 | 0.01 | 87 | 1014.7 |
| 20260902033006 | 82 | 236 | 0.0 | 0.0 | 0.00 | 0.01 | 0.01 | 86 | 1014.8 |
| 20260902031507 | 82 | 236 | 0.0 | 0.0 | 0.00 | 0.01 | 0.01 | 87 | 1014.5 |
| 20260902030007 | 82 | 236 | 0.0 | 0.0 | 0.00 | 0.01 | 0.01 | 86 | 1014.4 |
| 20260902024505 | 82 | 236 | 0.0 | 0.0 | 0.00 | 0.01 | 0.01 | 86 | 1014.1 |
| 20260902023004 | 82 | 236 | 0.0 | 0.0 | 0.00 | 0.01 | 0.01 | 86 | 1013.9 |
| 20260902021504 | 82 | 236 | 0.0 | 0.0 | 0.00 | 0.01 | 0.01 | 86 | 1013.7 |
| 20260902020004 | 82 | 237 | 0.0 | 0.0 | 0.00 | 0.01 | 0.01 | 86 | 1013.6 |
| 20260902014510 | 82 | 237 | 0.0 | 0.0 | 0.00 | 0.01 | 0.01 | 85 | 1013.5 |
| 20260902013002 | 82 | 237 | 0.0 | 0.0 | 0.00 | 0.01 | 0.01 | 85 | 1013.2 |
| 20260902011502 | 82 | 238 | 0.0 | 0.0 | 0.00 | 0.01 | 0.01 | 86 | 1013.1 |
| 20260902010001 | 82 | 238 | 0.0 | 0.0 | 0.00 | 0.01 | 0.01 | 85 | 1013.0 |
| 20260902004600 | 82 | 238 | 0.0 | 0.0 | 0.00 | 0.01 | 0.01 | 85 | 1013.1 |
| 20260902003059 | 82 | 301 | 0.0 | 0.0 | 0.00 | 0.01 | 0.01 | 85 | 1013.3 |
| 20260902001617 | 82 | 301 | 0.0 | 0.0 | 0.00 | 0.01 | 0.01 | 84 | 1013.4 |
| 20260902000058 | 82 | 302 | 0.0 | 0.0 | 0.00 | 0.01 | 0.01 | 85 | 1013.5 |
| 20260901234558 | 83 | 18 | 0.0 | 2.0 | 0.00 | 0.01 | 0.01 | 85 | 1013.4 |
| 20260901233058 | 83 | 329 | 0.0 | 1.0 | 0.00 | 0.01 | 0.01 | 86 | 1013.4 |
| 20260901231556 | 83 | 329 | 0.0 | 1.0 | 0.00 | 0.01 | 0.01 | 87 | 1013.4 |
| 20260901230055 | 83 | 329 | 0.0 | 3.0 | 0.00 | 0.01 | 0.01 | 86 | 1013.6 |
| 20260901224603 | 83 | 25 | 0.0 | 3.0 | 0.00 | 0.01 | 0.01 | 86 | 1013.8 |
| 20260901223056 | 84 | 360 | 0.0 | 5.0 | 0.00 | 0.01 | 0.01 | 85 | 1013.7 |
| 20260901221600 | 84 | 295 | 0.0 | 4.0 | 0.00 | 0.01 | 0.01 | 85 | 1013.6 |
| 20260901220053 | 84 | 286 | 0.0 | 1.0 | 0.00 | 0.01 | 0.01 | 85 | 1013.5 |